Location: Lecco
(45.8566°N, 9.3977°E)
Time: 08:36:37
(UTC+02:00)

ISS - Pass Details

Date: 16 July 2018
Orbit: 402 x 408 km, 51.6° (Epoch: 16 July)

Event Time Altitude Azimuth Distance (km) Brightness Sun altitude
Exits shadow 00:59:18 19° 65° (ENE) 1,060 -1.6 -22.4°
Drops below altitude 10° 01:00:19 10° 64° (ENE) 1,468 -0.8 -22.4°
Sets 01:02:24 0° 63° (ENE) 2,332 0.3 -22.5°
